Location: *
(52.2839°N, 2.8489°W)
Time: 21:08:36
(UTC+00:00)

Daily predictions for brighter satellites

Satellite Brightness Start Highest point End
(mag) Time Altitude Azimuth Time Altitude Azimuth Time Altitude Azimuth
Cosmos 1821 Rocket 4.1 17:26:21 10° N 17:32:30 85° W 17:38:42 10° S
Cosmos 1605 Rocket 4.2 17:27:18 10° N 17:33:18 48° ENE 17:39:10 10° SE
Cosmos 839 Rocket 4.5 17:27:22 10° NW 17:33:31 73° SW 17:40:23 10° SSE
Unknown 3.7 17:30:00 10° W 17:34:10 84° N 17:38:20 10° E
Cosmos 1934 Rocket 4.1 17:28:00 10° N 17:34:21 69° ENE 17:40:43 10° SSE
Cosmos 1328 3.8 17:30:31 10° N 17:34:29 59° ENE 17:38:22 10° SSE
Unknown 3.5 17:31:18 10° W 17:35:13 79° N 17:39:08 10° E
Unknown 3.7 17:31:35 10° W 17:35:44 83° N 17:39:55 10° E
Unknown 3.7 17:33:12 10° W 17:37:21 83° N 17:41:32 10° E
Cosmos 1242 Rocket 2.6 17:34:20 10° NNW 17:38:03 85° ENE 17:41:44 10° SSE
Unknown 3.7 17:34:56 10° W 17:39:05 83° N 17:43:15 10° E
CORIOLIS 4.3 17:34:18 10° SSE 17:39:39 87° WSW 17:45:05 10° NNW
Unknown 3.7 17:36:25 10° W 17:40:35 83° N 17:44:44 10° E
Cosmos 2227 Rocket 4.4 17:38:34 10° NW 17:40:49 12° N 17:43:05 10° NNE
FALCON 9 DEB 3.8 17:40:27 10° WNW 17:43:51 54° SSW 17:47:16 10° SE
Unknown 3.7 17:39:43 10° W 17:43:52 82° N 17:48:03 10° E
Unknown 3.7 17:41:23 10° W 17:45:32 82° N 17:49:41 10° E
Cosmos 2297 Rocket 4.4 17:43:35 10° NNW 17:45:38 12° N 17:47:42 10° NNE
H-2A R/B 3.1 17:43:08 10° S 17:47:03 73° WSW 17:51:00 10° NNW
ATLAS 3B R/B 4.2 17:44:46 10° SE 17:47:19 12° ESE 17:49:50 10° E
Unknown 3.7 17:43:15 10° W 17:47:25 81° N 17:51:29 11° E
Cosmos 2082 Rocket 2.3 17:42:27 10° NNW 17:48:08 59° NE 17:53:45 10° SE
Cosmos 2084 4.1 17:44:00 10° WSW 17:48:27 57° NW 17:52:50 10° NE
Unknown 3.7 17:44:45 10° W 17:48:55 81° N 17:52:55 11° E
CSL-04 Debris 4.5 17:44:50 10° SE 17:50:03 48° ENE 17:55:19 10° N
Cosmos 1535 Rocket 4.5 17:43:48 10° N 17:50:03 86° E 17:56:11 10° S
Unknown 3.7 17:46:23 10° W 17:50:32 81° N 17:54:29 11° E
Nadezhda 3 Rocket 4.2 17:44:15 10° SSW 17:50:35 81° W 17:57:01 10° N
NOAA 12 4.1 17:46:50 10° SSE 17:52:09 88° ENE 17:57:31 10° NNW
Unknown 3.6 17:48:56 10° W 17:53:00 79° N 17:56:45 12° E
Unknown 3.6 17:49:44 10° W 17:53:54 81° N 17:57:42 12° E
CENTAUR R/B 4.0 17:51:12 10° SE 17:54:09 14° ESE 17:56:59 11° ENE
Cosmos 1939 Rocket 4.0 17:51:11 10° ESE 17:54:26 24° ENE 17:57:44 10° N
Unknown 3.7 17:51:21 10° W 17:55:30 80° N 17:59:15 13° E
Unknown 3.6 17:53:02 10° W 17:57:12 80° N 18:00:52 13° E
Cosmos 1844 Rocket 3.3 17:51:40 10° SW 17:57:15 59° NW 18:02:50 10° NNE
Falcon 9 debris 4.2 17:54:02 10° W 17:57:19 43° SSW 18:00:37 10° SE
Cosmos 2228 3.3 17:53:14 10° SSW 17:57:34 73° W 18:01:55 10° N
BREEZE-M DEB (TANK) 4.4 17:54:35 10° SSW 17:57:45 17° SSE 17:59:43 10° ESE
Unknown 3.6 17:54:43 10° W 17:58:53 80° N 18:02:29 14° E
Unknown 4.0 17:57:45 10° W 18:01:11 50° SSW 18:04:35 10° SE
SKYMED 2 4.0 17:57:08 10° NNE 18:01:17 41° E 18:05:24 10° S
Unknown 3.6 17:58:05 10° W 18:02:15 80° N 18:05:42 15° E
Unknown 3.6 17:58:34 10° W 18:02:40 79° N 18:06:04 15° E
Unknown 3.6 17:59:03 10° W 18:03:13 80° N 18:06:38 15° E
Unknown 3.6 17:59:50 10° W 18:03:59 79° N 18:07:23 15° E
Cosmos 921 Rocket 3.5 17:59:36 10° SSW 18:04:03 67° WNW 18:08:29 10° NNE
Envisat 3.0 17:58:59 10° SSE 18:04:05 86° ENE 18:09:12 10° NNW
YAOGAN 1 2.7 18:00:08 10° SE 18:04:19 51° ENE 18:08:32 10° N
Unknown 3.6 18:01:37 10° W 18:05:46 79° N 18:09:06 16° E
Cosmos 1703 3.5 18:02:51 10° NNW 18:06:48 72° W 18:10:41 10° S
Cosmos 1356 3.4 18:05:13 10° SSW 18:08:39 86° WNW 18:12:08 10° NNE
Unknown 3.6 18:04:45 10° W 18:08:55 79° N 18:12:06 17° E
Cosmos 1898 Rocket 4.0 18:04:28 10° NNW 18:09:26 39° NE 18:14:23 10° ESE
Unknown 3.4 18:06:12 10° WNW 18:09:57 78° SSW 18:12:58 15° ESE
Cosmos 292 Rocket 3.8 18:05:55 10° SSW 18:10:40 88° WNW 18:15:28 10° NNE
COBE Rocket 3.9 18:05:47 10° NNE 18:10:58 71° E 18:16:00 10° S
Cosmos 1726 Rocket 4.3 18:07:00 10° SSW 18:11:19 57° WNW 18:15:38 10° N
Unknown 3.6 18:08:04 10° W 18:12:14 79° N 18:15:17 18° E
BREEZE M DEB (TANK) 3.6 18:10:27 10° WSW 18:12:28 25° SSW 18:16:05 10° SE
Unknown 3.6 18:09:42 10° W 18:13:52 79° N 18:16:51 18° E
H-2A R/B 3.6 18:11:50 15° E 18:14:01 19° NE 18:17:41 10° N
Cosmos 1726 2.2 18:11:13 10° SSW 18:14:52 76° WNW 18:18:32 10° N
ATLAS 5 CENTAUR R/B 3.0 18:10:48 10° W 18:15:01 37° NNW 18:19:51 10° NE
Unknown 3.6 18:11:23 10° W 18:15:33 79° N 18:18:28 19° E
Unknown 3.6 18:13:00 10° W 18:17:10 79° N 18:20:02 20° E
Cosmos 2100 Rocket 4.2 18:13:20 10° N 18:19:16 45° ENE 18:25:07 10° SE
Cosmos 489 Rocket 4.5 18:13:52 10° SSW 18:20:05 89° ESE 18:26:21 10° NNE
USA 116 3.9 18:19:00 10° NNE 18:22:01 35° E 18:25:14 10° SSE
USA 238 DEB 3.9 18:16:21 10° SSW 18:22:44 48° ESE 18:29:20 10° NE
USA 238 3.9 18:16:29 10° SSW 18:22:50 48° ESE 18:29:26 10° NE
Unknown 3.6 18:19:42 10° W 18:23:52 80° N 18:26:27 22° E
Cosmos 1461 4.3 18:20:18 10° NW 18:24:07 39° WSW 18:28:02 10° SSE
Cosmos 1908 3.2 18:21:28 10° S 18:25:22 87° W 18:29:17 10° N
Unknown 3.6 18:21:23 10° W 18:25:33 80° N 18:28:04 23° E
Abrixas rocket 3.1 18:23:00 10° SW 18:25:49 33° SSE 18:27:03 23° ESE
Unknown 3.6 18:23:02 10° W 18:27:11 80° N 18:29:39 24° E
CZ-4 R/B 1.6 18:23:00 10° S 18:27:13 79° WSW 18:31:29 10° NNW
Unknown 3.6 18:24:40 10° W 18:28:50 80° N 18:31:13 25° E
Unknown 3.6 18:26:20 10° W 18:30:30 80° N 18:32:48 25° E
ATLAS CENTAUR R/B 3.1 18:27:31 10° NNW 18:31:13 23° NNE 18:33:06 18° NE
Cosmos 2278 Rocket 2.1 18:26:07 10° SSW 18:31:47 80° ESE 18:37:30 10° NNE
Unknown 3.6 18:29:40 10° W 18:33:50 81° N 18:36:01 27° E
Cosmos 1153 Rocket 4.4 18:28:39 10° N 18:34:50 82° ENE 18:40:59 10° SSE
Cosmos 2016 Rocket 4.4 18:29:15 10° N 18:35:09 40° ENE 18:41:04 10° SE
Starlink (trailer) 3.6 18:31:19 10° W 18:35:29 81° N 18:37:35 28° E
Cosmos 2297 4.3 18:32:02 10° S 18:37:05 34° ESE 18:41:31 13° NE
Unknown 3.6 18:33:01 10° W 18:37:11 81° N 18:39:13 29° E
Meteor 2-10 4.4 18:32:21 10° SSW 18:37:20 63° WNW 18:42:22 10° N
Unknown 3.6 18:34:41 10° W 18:38:51 82° N 18:40:49 30° E
SJ 16-02 1.8 18:35:09 10° NNW 18:39:18 39° ENE 18:41:02 27° ESE
Cosmos 2058 Rocket 4.2 18:35:57 10° SSW 18:40:07 45° WNW 18:44:21 10° N
Cosmos 2084 Rocket 4.1 18:36:05 10° NW 18:40:27 56° SW 18:44:45 10° SSE
CSL-04 Rocket 3.8 18:34:57 10° SSE 18:40:29 78° WSW 18:45:59 10° NNW
SJ-6B 4.3 18:42:08 19° NE 18:42:08 19° NE 18:44:06 10° NNE
YAOGAN 6 3.4 18:38:44 10° S 18:42:17 53° W 18:45:51 10° NNW
Unknown 3.6 18:39:42 10° W 18:43:52 83° N 18:45:38 33° E
NOSS 3-2 (A) 3.6 18:39:28 10° SSW 18:45:08 53° SE 18:50:14 16° NE
Unknown 3.6 18:41:19 10° W 18:45:29 83° N 18:47:11 35° E
Cosmos 1825 4.5 18:43:11 10° NNE 18:43:31 11° NNE 18:43:31 11° NNE
Ariane Rocket 2.9 18:41:41 10° SSE 18:46:44 66° ENE 18:51:49 10° N
Unknown 3.5 18:43:00 10° W 18:47:10 83° N 18:48:48 36° E
ARGOS 4.1 18:46:32 26° E 18:47:45 28° ENE 18:52:19 10° N
Unknown 3.5 18:44:32 10° WNW 18:48:21 68° SSW 18:49:50 34° SE
Unknown 3.6 18:44:36 10° W 18:48:48 84° N 18:50:24 37° E
COSMO-SKYMED 1 2.8 18:45:06 10° N 18:49:28 72° WNW 18:53:47 10° SSW
EO 1 Delta rocket 4.2 18:45:39 10° S 18:50:18 71° W 18:55:40 10° NNW
Unknown 3.5 18:46:19 10° W 18:50:29 84° N 18:51:59 39° E
HJ-1C 3.5 18:50:51 46° ESE 18:51:20 51° ENE 18:54:37 10° N
Unknown 3.5 18:48:05 10° W 18:52:15 85° N 18:53:41 40° E
Cosmos 1892 3.2 18:48:46 10° N 18:52:13 38° ENE 18:52:13 38° ENE
Unknown 3.5 18:51:25 10° W 18:55:34 86° N 18:56:52 43° E
Unknown 3.5 18:52:58 10° W 18:57:09 86° N 18:58:23 45° E
Cosmos 990 Rocket 3.9 18:53:12 10° NNW 18:58:26 77° ENE 19:02:11 19° SSE
Cosmos 1833 Rocket 4.2 18:53:42 10° NW 18:58:48 36° WSW 19:03:53 10° S
Cosmos 1937 Rocket 3.4 18:54:31 10° NNW 18:59:40 64° ENE 19:02:14 29° SE
Unknown 3.5 18:56:13 10° W 19:00:23 87° N 19:01:29 48° E
ADEOS Rocket 4.1 18:53:48 10° NNE 19:00:28 31° E 19:03:33 23° SE
NOAA 11 4.2 18:55:05 10° SSE 19:00:32 86° WSW 19:06:00 10° NNW
Cosmos 858 Rocket 4.4 18:56:11 10° NNW 19:01:23 68° ENE 19:04:10 28° SE
Unknown 3.5 18:59:37 10° W 19:03:48 89° NNE 19:04:46 52° E
Unknown 3.5 19:01:18 10° W 19:05:28 89° NNE 19:06:22 54° E
Cosmos 1766 Rocket 3.6 19:01:27 10° N 19:05:43 52° ENE 19:06:20 48° ESE
Cosmos 1459 Rocket 3.9 18:59:49 10° N 19:06:05 83° E 19:12:25 10° SSE
Unknown 3.5 19:02:58 10° W 19:07:08 90° NNW 19:07:58 56° ESE
Unknown 3.5 19:04:39 10° W 19:08:49 89° S 19:09:35 58° ESE
Cosmos 1076 Rocket 4.2 19:06:20 10° NNW 19:10:37 55° W 19:14:51 10° S
NOSS 3-2 (C) 3.5 19:05:55 10° SSW 19:11:35 53° SE 19:14:29 31° ENE
Lacrosse 5 3.7 19:07:21 10° WNW 19:11:36 27° SW 19:15:49 10° S
Unknown 3.5 19:07:59 10° WNW 19:12:09 88° SSW 19:12:47 63° ESE
Cosmos 2058 3.2 19:08:14 10° NNW 19:12:27 70° W 19:16:38 10° S
CZ-2C R/B 4.0 19:13:11 33° ENE 19:13:25 33° ENE 19:18:27 10° N
Unknown 3.7 19:10:01 10° WNW 19:13:51 59° SSW 19:14:22 53° SSE
Unknown 3.5 19:09:41 10° WNW 19:13:52 87° S 19:14:25 66° ESE
Cosmos 2061 Rocket 3.9 19:07:41 10° N 19:13:58 72° ENE 19:19:54 11° SSE
Cosmos 1300 2.8 19:10:09 10° SSW 19:13:58 75° WNW 19:17:49 10° N
Unknown 3.5 19:11:16 10° WNW 19:15:26 87° SSW 19:15:56 68° ESE
Meteor 2-3 Rocket 4.5 19:10:41 10° N 19:15:45 33° ENE 19:15:45 33° ENE
Cosmos 1408 Rocket 4.1 19:12:05 10° N 19:15:24 39° NE 19:15:24 39° NE
Unknown 3.4 19:12:53 10° WNW 19:17:03 86° SSW 19:17:29 71° ESE
Unknown 3.4 19:14:36 10° WNW 19:18:46 85° SSW 19:19:09 73° ESE
Okean 3 Rocket 3.5 19:14:52 10° N 19:19:26 89° ENE 19:21:39 30° S
Unknown 3.4 19:16:06 10° WNW 19:20:15 86° SSW 19:20:34 76° ESE
Cosmos 372 Rocket 4.3 19:16:59 10° NNW 19:21:56 43° NE 19:21:58 43° ENE
SL-27 R/B 3.5 19:19:00 10° NNW 19:21:06 35° N 19:21:06 35° N
CZ-2D R/B 4.4 19:19:21 10° S 19:23:03 44° W 19:26:48 10° NNW
MOS 1 4.2 19:19:17 19° SSE 19:23:33 86° ENE 19:29:14 10° NNW
Unknown 3.4 19:19:24 10° WNW 19:23:34 85° SSW 19:23:44 81° SE
Unknown 3.5 19:21:03 10° WNW 19:25:13 84° SSW 19:25:19 82° SSE
Cosmos 1763 Rocket 4.0 19:21:31 10° S 19:25:17 40° SSE 19:25:17 40° SSE
Cosmos 2298 Rocket 4.1 19:21:37 10° NNW 19:26:51 55° ENE 19:27:15 53° ENE
Unknown 3.5 19:22:56 10° WNW 19:27:06 81° SSW 19:27:08 80° S
Cosmos 2227 Rocket 4.2 19:24:44 10° NNW 19:27:36 14° NNE 19:28:51 13° NNE
Resurs 01 Rocket 3.4 19:29:47 20° NNE 19:29:47 20° NNE 19:31:36 10° N
SJ-11-01 4.1 19:27:11 51° SSE 19:28:22 83° ENE 19:33:05 10° NNW
Unknown 3.5 19:24:26 10° WNW 19:28:35 82° SSW 19:28:35 82° SSW
Cosmos 1939 Rocket 4.0 19:25:17 10° S 19:29:08 44° W 19:33:05 10° NNW
Cosmos 2151 2.9 19:24:58 10° N 19:29:18 90° NNW 19:29:50 68° S
Unknown 3.5 19:26:03 10° WNW 19:30:08 81° SW 19:30:08 81° SW
Cosmos 2082 Rocket 4.0 19:27:00 10° NW 19:31:55 30° WSW 19:36:47 10° SSW
Unknown 3.7 19:28:11 10° WNW 19:32:02 67° SW 19:32:02 67° SW
Cosmos 2297 Rocket 4.2 19:29:20 10° NNW 19:32:22 14° NNE 19:33:19 14° NNE
Unknown 3.6 19:29:25 10° WNW 19:33:21 76° WSW 19:33:21 76° WSW
Unknown 3.7 19:31:01 10° WNW 19:34:54 74° WSW 19:34:54 74° WSW
Cosmos 2173 Rocket 4.3 19:29:28 10° NNW 19:35:40 64° W 19:41:44 10° S
ATLAS 3B R/B 2.6 19:30:05 10° SSW 19:36:35 55° SE 19:37:32 51° E
Unknown 3.7 19:32:42 10° WNW 19:36:31 71° WSW 19:36:31 71° WSW
SPOT 3 Rocket 3.4 19:36:38 64° ESE 19:37:15 72° ENE 19:42:28 10° NNW
Unknown 3.8 19:34:24 10° WNW 19:38:08 68° WSW 19:38:08 68° WSW
Cosmos 1864 Rocket 4.3 19:35:26 10° N 19:41:37 85° E 19:44:33 34° SSE
Unknown 3.9 19:37:45 10° WNW 19:41:21 63° WSW 19:41:21 63° WSW
Unknown 4.0 19:38:02 10° WNW 19:41:33 59° WSW 19:41:33 59° WSW
Unknown 4.0 19:38:43 10° WNW 19:42:17 61° WSW 19:42:17 61° WSW
CENTAUR R/B 2.5 19:37:11 10° SSW 19:43:10 61° SE 19:44:14 54° E
Unknown 4.0 19:39:29 10° WNW 19:43:01 59° WSW 19:43:01 59° WSW
Unknown 4.1 19:41:16 10° WNW 19:44:45 57° WSW 19:44:45 57° WSW
Cosmos 44 3.3 19:42:28 10° SW 19:46:50 71° SW 19:46:50 71° SW
Cosmos 1802 Rocket 4.4 19:41:00 10° NNW 19:47:23 65° W 19:53:40 10° S
Unknown 4.2 19:44:25 10° WNW 19:47:45 54° W 19:47:45 54° W
Unknown 4.4 19:47:43 10° WNW 19:50:56 50° W 19:50:56 50° W
Cosmos 2123 Rocket 3.8 19:46:18 10° S 19:52:34 77° E 19:58:50 10° NNE
H-2A R/B 2.0 19:52:28 80° ESE 19:52:41 83° ENE 19:58:10 10° NNW
Unknown 4.5 19:49:21 10° WNW 19:52:30 48° W 19:52:30 48° W
Cosmos 2233 Rocket 3.8 19:50:37 10° N 19:56:57 74° ENE 19:57:26 70° ESE
Cosmos 1725 Rocket 4.1 19:53:01 10° NNW 19:59:19 76° W 20:02:16 34° S
ATLAS 5 CENTAUR R/B 3.6 19:56:59 10° NW 20:01:01 24° N 20:01:57 23° NNE
ATLAS CENTAUR R/B 2.9 20:06:30 10° NW 20:09:18 35° NNW 20:09:18 35° NNW
USA 238 DEB 4.1 20:06:57 10° WSW 20:13:39 59° NW 20:16:51 32° NNE
USA 238 4.1 20:07:03 10° WSW 20:13:44 59° NW 20:16:54 33° NNE
Cosmos 1125 Rocket 4.3 20:10:38 10° NNW 20:14:16 43° N 20:14:16 43° N
Cosmos 2278 Rocket 4.0 20:11:40 10° W 20:16:30 28° NW 20:21:23 10° NNE
SJ 16-02 3.0 20:13:58 10° NW 20:17:47 29° WSW 20:18:04 29° WSW
Cosmos 2297 4.3 20:15:27 10° SW 20:21:03 55° NW 20:23:31 32° N
ARGOS 3.6 20:28:03 58° W 20:28:03 58° W 20:33:05 10° NNW
NOSS 3-2 (A) 4.2 20:30:08 10° WSW 20:36:05 52° NNW 20:37:39 43° N
ADEOS Rocket 3.6 20:38:54 10° NNE 20:46:35 72° WNW 20:50:26 31° SW
CZ-2C R/B 4.2 20:54:15 46° WNW 20:54:15 46° WNW 20:58:41 10° NNW
NOSS 3-2 (C) 4.2 20:56:38 10° WSW 21:01:58 51° NW 21:01:58 51° NW
Resurs 01 Rocket 4.3 21:07:21 16° NNW 21:07:21 16° NNW 21:08:23 10° NNW
Cosmos 2227 Rocket 4.2 21:08:25 10° NNW 21:10:39 21° N 21:10:39 21° N
Cosmos 2297 Rocket 4.2 21:13:00 10° NNW 21:15:06 21° N 21:15:06 21° N
ATLAS 3B R/B 3.9 21:20:53 10° WSW 21:24:50 35° W 21:24:50 35° W
H-2A R/B 4.4 21:33:06 19° W 21:33:06 19° W 21:36:34 10° NW
CENTAUR R/B 3.9 21:27:53 10° WSW 21:31:29 34° W 21:31:29 34° W
